Elwood, KS

1:29 PM CST on December 05, 2016 (GMT -0600)
Rosecrans Memorial

Weather History for KSTJ - July, 2012

Change the Weather History Date:

Sunday, July 1, 2012

  Actual Average Record
Temperature  
Mean Temperature 83 °F 76 °F  
Max Temperature 95 °F 86 °F 102 °F (1933)
Min Temperature 71 °F 66 °F 51 °F (1968)
Degree Days  
Heating Degree Days 0 0  
Month to date heating degree days 0 0  
Since 1 June heating degree days 8 8  
Since 1 July heating degree days 0 0  
Cooling Degree Days 18 11  
Month to date cooling degree days 18 11  
Year to date cooling degree days 636 391  
Since 1 June cooling degree days 369 278  
Growing Degree Days 34 (Base 50)    
Moisture  
Dew Point 68 °F    
Average Humidity 61    
Maximum Humidity 79    
Minimum Humidity 43    
Precipitation  
Precipitation 0.01 in 0.16 in 1.06 in (1906)
Month to date precipitation 0.01 0.16  
Year to date precipitation 14.86 17.29  
Sea Level Pressure  
Sea Level Pressure 29.88 in    
Wind  
Wind Speed 4 mph (South)    
Max Wind Speed 14 mph    
Max Gust Speed 22 mph    
Visibility 10 miles    
Events Rain , Thunderstorm    
T = Trace of Precipitation, MM = Missing Value Source: NWS Daily Summary

Daily Weather History Graph

Daily Weather History Graph

Search for Another Location

Airport or City:

Trip Planner

Search our weather history database for the weather conditions in past years. The results will help you decide how hot, cold, wet, or windy it might be!

Date:

Astronomy

Jul. 01, 2012 Rise Set
Actual Time 5:55 AM CDT 8:51 PM CDT
Civil Twilight 5:22 AM CDT 9:24 PM CDT
Nautical Twilight 4:41 AM CDT 10:05 PM CDT
Astronomical Twilight 3:54 AM CDT 10:52 PM CDT
Moon 6:55 PM CDT (7/1) 3:43 AM CDT (7/1)
Length of Visible Light 16h 01m
Length of Day
14h 56m
Waxing Gibbous, 94% of the Moon is Illuminated
Jul 1
Waxing Gibbous
Jul 3
Full
Jul 10
Last Quarter
Jul 18
New
Jul 26
First Quarter

Hourly Weather History & Observations

Time (CDT) Temp. Heat Index Dew Point Humidity Pressure Visibility Wind Dir Wind Speed Gust Speed Precip Events Conditions
12:27 AM 77.0 °F - 62.6 °F 61% 29.88 in - WSW 19.6 mph 27.6 mph N/A Thunderstorm Thunderstorm
12:45 AM 75.2 °F - 62.6 °F 65% 29.91 in 9.0 mi SW 10.4 mph - N/A Rain Light Rain
12:53 AM 73.9 °F - 64.0 °F 71% 29.88 in 9.0 mi WSW 11.5 mph - N/A Rain Light Rain
1:53 AM 75.2 °F - 64.4 °F 69% 29.84 in 10.0 mi SSE 9.2 mph - N/A   Scattered Clouds
2:53 AM 73.9 °F - 64.0 °F 71% 29.80 in 10.0 mi Calm Calm - N/A   Partly Cloudy
3:53 AM 73.9 °F - 64.9 °F 73% 29.81 in 10.0 mi South 8.1 mph 18.4 mph N/A   Clear
4:53 AM 75.0 °F - 64.9 °F 71% 29.84 in 10.0 mi Calm Calm - N/A   Clear
5:53 AM 73.9 °F - 66.9 °F 79% 29.87 in 10.0 mi Calm Calm - N/A   Clear
6:53 AM 73.0 °F - 66.9 °F 81% 29.88 in 10.0 mi Calm Calm - N/A   Clear
7:53 AM 75.9 °F - 68.0 °F 76% 29.91 in 10.0 mi Calm Calm - N/A   Clear
8:53 AM 79.0 °F - 69.1 °F 72% 29.91 in 10.0 mi South 4.6 mph - N/A   Clear
9:53 AM 82.4 °F 86.3 °F 69.8 °F 66% 29.95 in 10.0 mi SSW 5.8 mph - N/A   Clear
10:53 AM 84.0 °F 87.8 °F 69.1 °F 61% 29.94 in 10.0 mi SW 5.8 mph - N/A   Clear
11:53 AM 87.1 °F 92.0 °F 70.0 °F 57% 29.94 in 10.0 mi South 5.8 mph - N/A   Clear
12:53 PM 89.6 °F 96.2 °F 71.6 °F 55% 29.95 in 10.0 mi South 5.8 mph - N/A   Clear
1:53 PM 91.0 °F 98.2 °F 72.0 °F 53% 29.91 in 10.0 mi SSE 6.9 mph - N/A   Clear
2:53 PM 93.9 °F 100.8 °F 71.1 °F 47% 29.89 in 10.0 mi South 8.1 mph - N/A   Clear
3:53 PM 95.0 °F 100.7 °F 69.1 °F 43% 29.87 in 10.0 mi South 9.2 mph - N/A   Clear
4:53 PM 93.9 °F 100.3 °F 70.0 °F 46% 29.86 in 10.0 mi South 6.9 mph - N/A   Clear
5:53 PM 93.0 °F 100.1 °F 71.1 °F 49% 29.84 in 10.0 mi South 4.6 mph - N/A   Clear
6:53 PM 90.0 °F 96.4 °F 71.1 °F 54% 29.84 in 10.0 mi SSW 4.6 mph - N/A   Clear
7:53 PM 87.1 °F 93.6 °F 72.0 °F 61% 29.84 in 10.0 mi South 5.8 mph - N/A   Clear
8:53 PM 82.0 °F 85.9 °F 70.0 °F 67% 29.85 in 10.0 mi South 5.8 mph - N/A   Clear
9:53 PM 80.1 °F 82.9 °F 69.1 °F 69% 29.87 in 10.0 mi South 6.9 mph - N/A   Clear
10:53 PM 77.0 °F - 68.0 °F 74% 29.89 in 10.0 mi Calm Calm - N/A   Clear
11:53 PM 75.9 °F - 68.0 °F 76% 29.90 in 10.0 mi Calm Calm - N/A   Clear